Location: Big Prairie
(40.6673°N, 82.0952°W)
Time: 19:52:28
(UTC+00:00)

USA 276 - Pass Details

Date: 03 July 2022
Orbit: 366 x 369 km, 50.0° (Epoch: 12 July)

Event Time Altitude Azimuth Distance (km) Brightness Sun altitude
Rises 05:06:25 0° 307° (NW) 2,209 6.5 -26.1°
Reaches altitude 10° 05:08:53 10° 327° (NNW) 1,360 5.6 -26.1°
Maximum altitude 05:11:05 18° 14° (NNE) 987 4.9 -26.2°
Enters shadow 05:11:07 18° 15° (NNE) 988 4.8 -26.2°
